TEVEL-4 (51063 NORAD) Tracking and Keplerian Element Data

This shows tracking and keplerian element data for the satellite.

Feedback or suggestion? Click here.




ElementValue
Catalog51063
NameTEVEL-4
Epoch Orbit13363
Epoch Day160.19466552
Epoch Year2024
RAAN235.5806
Inclination97.3783
Eccentricity0.0001575
Argument of Perigee232.3996
Mean Anonmoly127.712
Mean Motion15.6480631
Decay Rate0.00199614
L11 51063U 22002CH 24160.19466552 .00199614 00000+0 20071-2 0 9993
L22 51063 97.3783 235.5806 0001575 232.3996 127.7120 15.64806310133635



Live tracking and technical data element details for TEVEL-4 (NORAD 51063). TEVEL-4 can be tracked NOW for your location showing map with azimuth and elevation plus other details from your city location.







IsCatalogInMostPopularTable: catalog: 51063, numindb: 123
Update: records affected: 1



GetName: 51063 TEVEL-4

Hit Count: updated at: Thu, 23 Jan 2025 17:12:01 GMT